User: anonymous   Login
Location: Vigo di Fassa
(46.4167°N, 11.6667°E)
Time: 14:45:32
(UTC+00:00)
Language:

Cosmos 2218 Rocket - Orbit

View from above orbital plane
View from above orbital plane
View from above satellite
View from above satellite

Ground track
Ground track

The orbit data is extracted from the following two-line orbital elements,

1 22208U 92073B   21137.80743583  .00000029  00000-0  14753-4 0  9992
2 22208  82.9215  39.1444 0034633  10.1844  51.6032 13.75161799432369
Epoch (UTC): 17 May 2021 19:22:42
Eccentricity: 0.0034633
inclination: 82.9215°
perigee height: 955 km
apogee height: 1006 km
right ascension of ascending node: 39.1444°
argument of perigee: 10.1844°
revolutions per day: 13.75161799
mean anomaly at epoch: 51.6032°
orbit number at epoch: 43236

The dashed part of the orbit path shows where the satellite is in the earth's shadow,  

DLR